Location: ?????????
(38.5999°N, 22.7695°E)
Time: 09:19:25
(UTC+00:00)

Cosmos 2227 Rocket - Pass Details

Date: 23 May 2024
Orbit: 838 x 845 km, 71.0° (Epoch: 18 June)

Event Time Altitude Azimuth Distance (km) Brightness Sun altitude
Rises 02:20:27 0° 169° (S) 3,384 5.1 -9.2°
Reaches altitude 10° 02:23:14 10° 158° (SSE) 2,454 4.5 -8.8°
Maximum altitude 02:27:51 27° 102° (ESE) 1,574 4.2 -8.0°
Drops below altitude 10° 02:32:31 10° 47° (NE) 2,470 6.3 -7.3°
Sets 02:35:18 0° 35° (NE) 3,410 6.9 -6.8°
